sat.trackr.live / text

‹ back to catalog

NETSAT-1

NORAD 46506 · 2020-068W

PAYLOAD ACTIVE UNKNOWN

§ Identity

Operator
Country
GER
Launch date
2020-09-28
Launch site
PLMSC
Launch vehicle
Mass (kg)
RCS (m²)

Purposes: tech_demo

External: N2YO · Heavens-Above · Gunter

§ Orbital elements

Epoch: 2026-09-20T00:14:37.982976Z

Period
93.71 min
Inclination
97.8792°
Eccentricity
0.0005750
Mean motion
15.36579235 rev/d
Perigee alt
452.3 km
Apogee alt
460.2 km
Semi-major
6,834.4 km
B*
2.5953e-4
RAAN
270.3479°
Arg perigee
51.1290°
Mean anomaly
309.0465°
Rev number
32,985

§ Raw data

NETSAT-11 46506U 20068W   26263.01016184  .00009183  00000+0  25953-3 0  99942 46506  97.8792 270.3479 0005750  51.1290 309.0465 15.36579235329852

JSON: /api/v1/satellites/46506 · /tle

For live sub-satellite position, see the globe view (requires WebGL).

§ Visibility from observer

Set your observer location to see the next 7 days of passes ≥ 10°. The values pass through the URL so the page stays shareable.

No JS? Fill the form by hand. The geolocation button needs JavaScript.

§ Radio — SatNOGS DB

ModeDescriptionDownlinkUplink
FSK AX.25 G3RUH Telemetry 435.600 MHz

1 transmitter · refreshed weekly from db.satnogs.org